• In United Kingdom
  • List of Countries
  • For 7 days
  • Water Temperature
  • Satellite Maps
  • Weather Map
  • Weather Widgets
  • user-avatar
    Login

    Hourly Weather Chimoio

    Today, 22 July, Sunday

    Time Temperature Precipitation Wind Pressure Humidity
    00:00 +15°C° 0 mm 1 mps 710 mmHg 67%
    01:00 +15°C° 0 mm 1 mps 710 mmHg 68%
    02:00 +15°C° 0 mm 1 mps 710 mmHg 73%
    03:00 +15°C° 0 mm 1 mps 710 mmHg 75%
    04:00 +15°C° 0 mm 1 mps 710 mmHg 77%
    05:00 +15°C° 0 mm 1 mps 710 mmHg 79%
    06:00 +15°C° 0.1 mm 1 mps 710 mmHg 80%
    07:00 +16°C° 0.1 mm 1 mps 710 mmHg 81%
    08:00 +16°C° 0.1 mm 2 mps 711 mmHg 82%
    09:00 +17°C° 0.2 mm 2 mps 711 mmHg 81%
    10:00 +17°C° 0.2 mm 2 mps 711 mmHg 79%
    11:00 +18°C° 0.2 mm 2 mps 711 mmHg 78%
    12:00 +19°C° 0.2 mm 2 mps 711 mmHg 72%
    13:00 +20°C° 0.2 mm 2 mps 711 mmHg 66%
    14:00 +21°C° 0.2 mm 2 mps 711 mmHg 60%
    15:00 +21°C° 0.1 mm 2 mps 711 mmHg 61%
    16:00 +20°C° 0.1 mm 2 mps 710 mmHg 63%
    17:00 +21°C° 0.1 mm 1 mps 710 mmHg 65%
    18:00 +19°C° 0.1 mm 1 mps 710 mmHg 72%
    19:00 +18°C° 0.1 mm 1 mps 710 mmHg 79%
    20:00 +15°C° 0.1 mm 0 mps 711 mmHg 86%
    21:00 +14°C° 0.1 mm 0 mps 711 mmHg 88%
    22:00 +15°C° 0.1 mm 1 mps 711 mmHg 90%
    23:00 +15°C° 0.1 mm 1 mps 711 mmHg 92%

    Tomorrow, 23 July, Monday

    Time Temperature Precipitation Wind Pressure Humidity
    00:00 +14°C° 0.1 mm 1 mps 711 mmHg 93%
    01:00 +14°C° 0.1 mm 1 mps 711 mmHg 94%
    02:00 +14°C° 0.1 mm 1 mps 710 mmHg 94%
    03:00 +14°C° 0.1 mm 1 mps 710 mmHg 94%
    04:00 +14°C° 0.1 mm 1 mps 710 mmHg 93%
    05:00 +14°C° 0.1 mm 1 mps 710 mmHg 92%
    06:00 +15°C° 0.1 mm 2 mps 711 mmHg 89%
    07:00 +16°C° 0.1 mm 2 mps 711 mmHg 85%
    08:00 +17°C° 0.1 mm 2 mps 712 mmHg 81%
    09:00 +18°C° 0 mm 2 mps 712 mmHg 72%
    10:00 +20°C° 0 mm 3 mps 712 mmHg 63%
    11:00 +22°C° 0 mm 3 mps 713 mmHg 53%
    12:00 +22°C° 0 mm 3 mps 712 mmHg 53%
    13:00 +22°C° 0 mm 3 mps 711 mmHg 53%
    14:00 +23°C° 0 mm 4 mps 711 mmHg 52%
    15:00 +22°C° 0.1 mm 3 mps 711 mmHg 56%
    16:00 +21°C° 0.1 mm 3 mps 710 mmHg 60%
    17:00 +20°C° 0.1 mm 2 mps 710 mmHg 65%
    18:00 +19°C° 0.1 mm 2 mps 710 mmHg 71%
    19:00 +18°C° 0.1 mm 1 mps 710 mmHg 78%
    20:00 +16°C° 0.1 mm 1 mps 710 mmHg 85%
    21:00 +16°C° 0.1 mm 1 mps 711 mmHg 87%
    22:00 +16°C° 0.1 mm 1 mps 711 mmHg 88%
    23:00 +15°C° 0.1 mm 1 mps 711 mmHg 90%

    Day after tomorrow, 24 July, Tuesday

    Time Temperature Precipitation Wind Pressure Humidity
    00:00 +15°C° 0.1 mm 1 mps 711 mmHg 92%
    01:00 +15°C° 0.1 mm 1 mps 710 mmHg 94%
    02:00 +15°C° 0.1 mm 1 mps 710 mmHg 96%
    03:00 +15°C° 0.2 mm 1 mps 710 mmHg 96%
    04:00 +15°C° 0.2 mm 1 mps 710 mmHg 95%
    05:00 +15°C° 0.2 mm 1 mps 710 mmHg 95%
    06:00 +16°C° 0.2 mm 2 mps 710 mmHg 93%
    07:00 +16°C° 0.2 mm 2 mps 710 mmHg 91%
    08:00 +16°C° 0.2 mm 2 mps 711 mmHg 90%
    09:00 +18°C° 0.1 mm 2 mps 711 mmHg 82%
    10:00 +19°C° 0.1 mm 2 mps 711 mmHg 75%
    11:00 +21°C° 0.1 mm 2 mps 712 mmHg 67%
    12:00 +23°C° 0 mm 2 mps 711 mmHg 61%
    13:00 +23°C° 0 mm 2 mps 710 mmHg 54%
    14:00 +24°C° 0 mm 2 mps 710 mmHg 48%
    15:00 +24°C° 0 mm 2 mps 709 mmHg 50%
    16:00 +23°C° 0 mm 2 mps 709 mmHg 51%
    17:00 +21°C° 0 mm 2 mps 709 mmHg 53%
    18:00 +20°C° 0 mm 1 mps 709 mmHg 58%
    19:00 +18°C° 0 mm 1 mps 709 mmHg 63%
    20:00 +16°C° 0 mm 1 mps 709 mmHg 68%
    21:00 +15°C° 0 mm 1 mps 709 mmHg 72%
    22:00 +14°C° 0 mm 0 mps 709 mmHg 76%
    23:00 +13°C° 0 mm 0 mps 709 mmHg 80%

    25 July, Wednesday

    Time Temperature Precipitation Wind Pressure Humidity
    00:00 +13°C° 0 mm 0 mps 709 mmHg 81%
    01:00 +14°C° 0 mm 1 mps 708 mmHg 83%
    02:00 +13°C° 0 mm 1 mps 708 mmHg 84%
    03:00 +13°C° 0 mm 1 mps 708 mmHg 83%
    04:00 +14°C° 0 mm 1 mps 708 mmHg 83%
    05:00 +14°C° 0 mm 1 mps 708 mmHg 82%
    06:00 +15°C° 0 mm 1 mps 708 mmHg 78%
    07:00 +16°C° 0 mm 1 mps 709 mmHg 75%
    08:00 +18°C° 0 mm 1 mps 709 mmHg 72%
    09:00 +20°C° 0 mm 1 mps 710 mmHg 63%
    10:00 +22°C° 0 mm 1 mps 710 mmHg 54%
    11:00 +24°C° 0 mm 2 mps 710 mmHg 46%
    12:00 +24°C° 0 mm 2 mps 709 mmHg 44%
    13:00 +24°C° 0 mm 2 mps 708 mmHg 43%
    14:00 +25°C° 0 mm 2 mps 708 mmHg 42%
    15:00 +24°C° 0 mm 2 mps 707 mmHg 46%
    16:00 +23°C° 0 mm 2 mps 707 mmHg 51%
    17:00 +21°C° 0 mm 2 mps 707 mmHg 55%
    18:00 +20°C° 0 mm 1 mps 707 mmHg 62%
    19:00 +19°C° 0 mm 1 mps 707 mmHg 69%
    20:00 +15°C° 0 mm 0 mps 708 mmHg 76%
    21:00 +15°C° 0 mm 0 mps 708 mmHg 79%
    22:00 +14°C° 0 mm 0 mps 708 mmHg 82%
    23:00 +14°C° 0 mm 0 mps 708 mmHg 84%

    26 July, Thursday

    Time Temperature Precipitation Wind Pressure Humidity
    00:00 +14°C° 0 mm 0 mps 707 mmHg 86%
    01:00 +13°C° 0 mm 0 mps 707 mmHg 87%
    02:00 +14°C° 0 mm 1 mps 706 mmHg 89%
    03:00 +14°C° 0 mm 1 mps 706 mmHg 89%
    04:00 +13°C° 0 mm 1 mps 706 mmHg 90%
    05:00 +13°C° 0 mm 1 mps 706 mmHg 91%
    06:00 +15°C° 0 mm 1 mps 707 mmHg 83%
    07:00 +16°C° 0 mm 1 mps 708 mmHg 76%
    08:00 +17°C° 0 mm 0 mps 708 mmHg 69%
    09:00 +21°C° 0 mm 1 mps 709 mmHg 59%
    10:00 +24°C° 0 mm 1 mps 709 mmHg 49%
    11:00 +26°C° 0 mm 1 mps 709 mmHg 39%
    12:00 +26°C° 0 mm 1 mps 708 mmHg 36%
    13:00 +27°C° 0 mm 1 mps 707 mmHg 34%
    14:00 +27°C° 0 mm 1 mps 707 mmHg 32%
    15:00 +26°C° 0 mm 1 mps 706 mmHg 36%
    16:00 +24°C° 0 mm 1 mps 706 mmHg 40%
    17:00 +23°C° 0 mm 1 mps 706 mmHg 44%
    18:00 +21°C° 0 mm 1 mps 706 mmHg 50%
    19:00 +20°C° 0 mm 1 mps 706 mmHg 56%
    20:00 +18°C° 0 mm 1 mps 707 mmHg 63%
    21:00 +18°C° 0 mm 1 mps 707 mmHg 68%
    22:00 +15°C° 0 mm 0 mps 707 mmHg 74%
    23:00 +14°C° 0 mm 0 mps 707 mmHg 80%

    27 July, Friday

    Time Temperature Precipitation Wind Pressure Humidity
    00:00 +14°C° 0 mm 0 mps 707 mmHg 82%
    01:00 +14°C° 0 mm 0 mps 706 mmHg 85%
    02:00 +14°C° 0 mm 0 mps 706 mmHg 87%
    03:00 +13°C° 0 mm 0 mps 706 mmHg 88%
    04:00 +13°C° 0 mm 0 mps 706 mmHg 90%
    05:00 +14°C° 0 mm 1 mps 706 mmHg 91%
    06:00 +15°C° 0 mm 1 mps 707 mmHg 84%
    07:00 +16°C° 0 mm 0 mps 708 mmHg 78%
    08:00 +17°C° 0 mm 0 mps 708 mmHg 71%
    09:00 +21°C° 0 mm 1 mps 708 mmHg 61%
    10:00 +24°C° 0 mm 1 mps 708 mmHg 52%
    11:00 +26°C° 0 mm 1 mps 709 mmHg 42%
    12:00 +26°C° 0 mm 1 mps 708 mmHg 39%
    13:00 +27°C° 0 mm 2 mps 707 mmHg 37%
    14:00 +27°C° 0 mm 2 mps 706 mmHg 34%
    15:00 +26°C° 0 mm 2 mps 706 mmHg 37%
    16:00 +25°C° 0 mm 2 mps 706 mmHg 41%
    17:00 +24°C° 0 mm 1 mps 706 mmHg 44%
    18:00 +22°C° 0 mm 1 mps 706 mmHg 51%
    19:00 +21°C° 0 mm 1 mps 706 mmHg 57%
    20:00 +19°C° 0 mm 1 mps 706 mmHg 64%
    21:00 +18°C° 0 mm 1 mps 706 mmHg 70%
    22:00 +16°C° 0 mm 0 mps 706 mmHg 77%
    23:00 +15°C° 0 mm 0 mps 706 mmHg 83%
    Show more